DW8108 Weather Reports


Display with metric or nautical units.
time (UTC)temp
F
wind
direction
speed
MPH
gust
MPH
rain 1hr
in
rain 24hr
in
rain mn
in
humidity
%
barometer
mb
20260508050058 47 0.0 7.0 0.00 0.00 0.00 88 1011.4
20260508044557 47 0.0 7.0 0.00 0.00 0.00 88 1011.5
20260508043102 47 0.0 6.0 0.00 0.00 0.00 89 1011.6
20260508041614 46 0.0 4.0 0.00 0.00 0.00 90 1011.6
20260508040108 46 0.0 6.0 0.00 0.00 0.00 90 1011.5
20260508034553 46 0.0 3.0 0.00 0.00 0.00 89 1011.4
20260508033052 46 0.0 0.0 0.00 0.00 0.00 88 1011.4
20260508031554 47 0.0 0.0 0.00 0.00 0.00 86 1011.5
20260508030051 47 0.0 2.0 0.00 0.00 0.00 86 1011.6
20260508024604 48 0.0 3.0 0.00 0.00 0.00 85 1011.6
20260508023051 48 0.0 4.0 0.00 0.00 0.00 85 1011.5
20260508021550 48 0.0 5.0 0.00 0.00 0.00 85 1011.4
20260508020051 49 0.0 5.0 0.00 0.00 0.00 83 1011.3
20260508014548 49 0.0 4.0 0.00 0.00 0.00 82 1011.1
20260508013051 50 0.0 4.0 0.00 0.00 0.00 79 1010.9
20260508011555 51 0.0 4.0 0.00 0.00 0.00 78 1010.8
20260508010047 51 0.0 5.0 0.00 0.00 0.00 77 1010.8
20260508004552 52 0.0 7.0 0.00 0.00 0.00 74 1010.7
20260508003046 54 0.0 9.0 0.00 0.00 0.00 70 1010.7
20260508001549 56 0.0 15.0 0.00 0.00 0.00 64 1010.7
20260508000044 58 0.0 18.0 0.00 0.00 0.00 62 1010.1
20260507234544 58 0.0 13.0 0.00 0.00 0.00 65 1009.9
20260507233056 58 0.0 8.0 0.00 0.00 0.00 64 1010.0
20260507231542 58 0.0 13.0 0.00 0.00 0.00 64 1010.2
20260507230040 58 0.0 10.0 0.00 0.00 0.00 63 1010.5
20260507224546 58 0.0 12.0 0.00 0.00 0.00 64 1010.6
20260507223036 58 0.0 11.0 0.00 0.00 0.00 61 1010.9
20260507221537 58 0.0 13.0 0.00 0.00 0.00 63 1011.1
20260507220034 58 0.0 12.0 0.00 0.00 0.00 61 1011.1
20260507214533 58 0.0 16.0 0.00 0.00 0.00 62 1011.0
20260507213036 57 0.0 13.0 0.00 0.00 0.00 63 1011.2
20260507211531 55 0.0 9.0 0.00 0.00 0.00 67 1011.5
20260507210028 54 0.0 5.0 0.00 0.00 0.00 72 1011.9
20260507204525 53 0.0 9.0 0.00 0.00 0.00 70 1012.2
20260507203023 54 0.0 12.0 0.00 0.00 0.00 71 1012.7
20260507201522 53 0.0 13.0 0.00 0.00 0.00 75 1012.6
20260507200020 53 0.0 14.0 0.00 0.00 0.00 72 1013.2
20260507194520 53 0.0 10.0 0.00 0.00 0.00 71 1013.3
20260507193026 53 0.0 13.0 0.00 0.00 0.00 68 1013.4
20260507191529 54 0.0 20.0 0.00 0.00 0.00 61 1013.7
20260507190018 57 0.0 32.0 0.00 0.00 0.00 50 1013.4
20260507184517 58 0.0 22.0 0.00 0.00 0.00 49 1013.0
20260507183029 57 0.0 20.0 0.00 0.00 0.00 49 1013.0
20260507181516 57 0.0 17.0 0.00 0.00 0.00 46 1013.0
20260507180026 59 0.0 11.0 0.00 0.00 0.00 46 1012.9
20260507174515 59 0.0 9.0 0.00 0.00 0.00 47 1013.2
20260507173011 60 0.0 14.0 0.00 0.00 0.00 45 1013.4
20260507171510 60 0.0 13.0 0.00 0.00 0.00 48 1013.8
20260507170005 58 0.0 21.0 0.00 0.00 0.00 47 1014.1
20260507164502 58 0.0 12.0 0.00 0.00 0.00 49 1014.4
20260507163100 58 0.0 13.0 0.00 0.00 0.00 47 1014.7
20260507161604 57 0.0 15.0 0.00 0.00 0.00 47 1014.8
20260507160055 56 0.0 16.0 0.00 0.00 0.00 47 1015.1
20260507154551 56 0.0 13.0 0.00 0.00 0.00 52 1015.1
20260507153056 55 0.0 12.0 0.00 0.00 0.00 51 1015.1
20260507151548 54 0.0 10.0 0.00 0.00 0.00 52 1015.1
20260507150049 53 0.0 13.0 0.00 0.00 0.00 53 1015.4
20260507144546 53 0.0 13.0 0.00 0.00 0.00 56 1015.6
20260507143039 52 0.0 13.0 0.00 0.00 0.00 58 1015.7
20260507141535 51 0.0 12.0 0.00 0.00 0.00 64 1015.8
20260507140031 50 0.0 9.0 0.00 0.00 0.00 65 1016.0
20260507134529 48 0.0 9.0 0.00 0.00 0.00 65 1015.8
20260507133023 47 0.0 6.0 0.00 0.00 0.00 71 1015.8
20260507131527 44 0.0 5.0 0.00 0.00 0.00 77 1015.8
20260507130014 42 0.0 5.0 0.00 0.00 0.00 84 1015.8
20260507124515 41 0.0 5.0 0.00 0.00 0.00 88 1015.7
20260507123009 39 0.0 5.0 0.00 0.00 0.00 91 1015.8
20260507121507 37 0.0 4.0 0.00 0.00 0.00 92 1015.6
20260507120025 36 0.0 5.0 0.00 0.00 0.00 92 1015.6
20260507114506 35 0.0 4.0 0.00 0.00 0.00 91 1015.6
20260507113023 34 0.0 0.0 0.00 0.00 0.00 91 1015.5
20260507111504 35 0.0 0.0 0.00 0.00 0.00 91 1015.4
20260507110007 35 0.0 0.0 0.00 0.00 0.00 90 1015.5
20260507104602 35 0.0 0.0 0.00 0.00 0.00 91 1015.5
20260507103059 36 0.0 0.0 0.00 0.00 0.00 90 1015.4
20260507101603 36 0.0 0.0 0.00 0.00 0.00 90 1015.4
20260507100105 36 0.0 5.0 0.00 0.00 0.00 90 1015.4
20260507094559 36 0.0 5.0 0.00 0.00 0.00 90 1015.3
20260507093058 36 0.0 3.0 0.00 0.00 0.00 90 1015.4
20260507091557 36 0.0 4.0 0.00 0.00 0.00 89 1015.4
20260507090057 36 0.0 3.0 0.00 0.00 0.00 89 1015.4
20260507084601 36 0.0 1.0 0.00 0.00 0.00 89 1015.3
20260507083054 36 0.0 2.0 0.00 0.00 0.00 88 1015.3
20260507081553 36 0.0 0.0 0.00 0.00 0.00 88 1015.3
20260507080051 36 0.0 0.0 0.00 0.00 0.00 87 1015.4
20260507074550 36 0.0 0.0 0.00 0.00 0.00 86 1015.3
20260507073113 37 0.0 1.0 0.00 0.00 0.00 86 1015.3
20260507071547 37 0.0 2.0 0.00 0.00 0.00 84 1015.3
20260507070046 37 0.0 2.0 0.00 0.00 0.00 83 1015.3
20260507064559 37 0.0 3.0 0.00 0.00 0.00 82 1015.4
20260507063052 38 0.0 3.0 0.00 0.00 0.00 82 1015.4
20260507061541 38 0.0 4.0 0.00 0.00 0.00 82 1015.4
20260507060038 38 0.0 4.0 0.00 0.00 0.00 82 1015.4
20260507054536 39 0.0 3.0 0.00 0.00 0.00 82 1015.5
20260507053036 40 0.0 2.0 0.00 0.00 0.00 83 1015.6
20260507051531 40 0.0 2.0 0.00 0.00 0.00 83 1015.5